Location: R�o Medio
(42.4667°N, 3.0167°W)
Time: 10:28:50
(UTC+00:00)

IRS-1A Rocket - Pass Details

Date: 27 February 2020
Orbit: 852 x 930 km, 99.2° (Epoch: 05 April)

Event Time Altitude Azimuth Distance (km) Brightness Sun altitude
Rises 19:42:09 0° 168° (SSE) 3,415 7.2 -19.8°
Reaches altitude 10° 19:44:31 10° 170° (S) 2,478 6.5 -20.3°
Maximum altitude 19:50:00 76° 256° (WSW) 880 4.3 -21.3°
Drops below altitude 10° 19:55:32 10° 343° (NNW) 2,493 7.0 -22.3°
Sets 19:57:55 0° 345° (NNW) 3,438 7.7 -22.7°
